Flag for Germany Weather past 2 weeks in Viersen, North Rhine-Westphalia, Germany

Now
41 °F

Sunny.


Feels Like: 33 °F
Forecast: 35 / 44 °F
Wind: 14 mph from Southwest

Location: Monchengladbach Airport

Current Time: Mar 3, 2015 at 9:55:49 AM

Latest Report: Mar 3, 2015 at 9:20 AM


Visibility: 10 mi

Pressure: 30.07 "Hg

Humidity: 76%

Dew point: 34 °F

Location of ViersenLocation

Historic Weather in Viersen — Graph

°F

Viersen temperature yesterday

Maximum temperature yesterday: 48 °F (at 12:50 PM)
Minimum temperature yesterday: 37 °F (at 3:50 PM)
Average temperature yesterday: 43 °F

Past Weeks' High & Low Weather Summary

 TemperatureHumidityPressure
High52 °F (Mar 1, 10:20 AM)100% (Feb 17, 7:50 AM)30.77 "Hg (Feb 17, 7:50 AM)
Low30 °F (Feb 28, 7:20 AM)50% (Feb 28, 4:50 PM)29.45 "Hg (Feb 21, 8:20 AM)
Average42 °F80%29.98 "Hg
* Reported Feb 16 8:20 AM — Mar 3 8:50 AM, Viersen, Weather by CustomWeather, © 2015

Note: Actual official high and low records may vary slightly from our data, if they occured in-between our weather recording intervals... More about our weather records

Advertising

Viersen weather history for previous 24 hours

 ConditionsComfort  
Time TempWeatherWind HumidityBarometerVisibility
8:50 AM
Tue, Mar 3
41 °FScattered clouds.12 mph76%30.07 "HgN/A
8:20 AM39 °FPartly sunny.21 mph81%30.04 "HgN/A
7:50 AM39 °FScattered clouds.12 mph81%30.04 "HgN/A
8:20 PM
Mon, Mar 2
41 °FPassing clouds.10 mph61%29.89 "HgN/A
7:50 PM41 °FPassing clouds.9 mph66%29.86 "HgN/A
7:20 PM41 °FPassing clouds.7 mph70%29.86 "HgN/A
6:50 PM39 °FPassing clouds.6 mph87%29.83 "HgN/A
6:20 PM39 °FPassing clouds.7 mph87%29.83 "HgN/A
5:50 PM39 °FClear.10 mph81%29.80 "Hg10 mi
5:20 PM39 °FClear.10 mph87%29.77 "Hg10 mi
4:50 PM37 °FPassing clouds.9 mph100%29.77 "HgN/A
4:20 PM37 °FLight rain. Partly cloudy.9 mph93%29.77 "Hg4 mi
3:50 PM37 °FRain. Fog.14 mph93%29.74 "Hg1 mi
3:20 PM41 °FRain showers. Passing clouds.17 mph76%29.71 "Hg3 mi
2:50 PM46 °FPassing clouds.14 mph50%29.68 "HgN/A
2:20 PM48 °FPassing clouds.13 mph50%29.68 "HgN/A
1:50 PM48 °FPassing clouds.16 mph50%29.68 "HgN/A
1:20 PM48 °FPassing clouds.14 mph54%29.68 "HgN/A
12:50 PM48 °FPassing clouds.13 mph50%29.71 "HgN/A
12:20 PM46 °FPassing clouds.14 mph62%29.68 "HgN/A
11:50 AM46 °FPassing clouds.15 mph53%29.68 "HgN/A
11:20 AM46 °FPassing clouds.13 mph57%29.68 "HgN/A
10:50 AM45 °FPassing clouds.13 mph66%29.68 "HgN/A
10:20 AM45 °FPassing clouds.12 mph66%29.68 "HgN/A
9:50 AM43 °FPassing clouds.14 mph71%29.65 "HgN/A
9:20 AM43 °FSunny.9 mph66%29.65 "Hg10 mi
Weather by CustomWeather, © 2015

See weather overviewHow to use our weather pages